Location: Unspecified
(0.0000°N, 0.0000°E)
Time: 17:40:47
(UTC+01:00)

Orbus 21S - Visible Passes

Search period start: 30 October 2014 00:00
Search period end: 09 November 2014 00:00
Orbit: 317 x 33454 km, 24.1° (Epoch: 29 October)

Date Brightness Start Highest point End Pass type
(mag) Time Alt. Az. Time Alt. Az. Time Alt. Az.
30 Oct 5.1 00:00:00 36° WSW 06:42:47 85° SSE 06:48:15 10° ENE visible
30 Oct 7.8 16:59:36 10° NW 17:21:59 74° NE 02:09:28 10° ESE visible
31 Oct 9.9 18:31:29 10° ESE 19:25:15 12° ESE 20:07:17 10° ESE visible
31 Oct 10.1 23:19:50 10° W 00:28:53 20° WSW 02:45:14 10° WSW visible
01 Nov 7.9 18:05:55 10° WNW 18:46:33 89° SW 03:17:49 10° E visible
02 Nov 6.1 13:32:46 10° N 20:26:39 28° ESE 14:02:26 10° E visible
03 Nov 7.6 19:13:31 10° WNW 20:27:49 72° SW 04:24:30 10° E visible
04 Nov 6.6 14:36:30 10° NNW 21:27:07 43° SE 23:33:11 10° ESE visible
05 Nov 6.1 20:23:38 10° W 05:21:51 73° SSE 05:30:01 10° ENE visible
06 Nov 7.2 15:40:54 10° NW 15:55:28 61° NE 00:46:59 10° ESE visible
08 Nov 4.8 05:26:56 10° WSW 06:29:23 79° NNW 06:34:36 10° ENE visible
08 Nov 7.9 16:45:50 10° NW 17:08:53 80° NE 00:00:00 60° S visible
